{"data":{"norad_id":66619,"intl_designator":"2025-271C","name":"STARLINK-35951","alt_names":[],"object_type":"PAYLOAD","status":"ACTIVE","operator":null,"country":"US","launch_date":"2025-11-23","launch_site_code":"AFWTR","launch_vehicle":null,"mission":null,"orbit_class":"UNKNOWN","rcs_meters":null,"size_class":null,"mass_kg":null,"dimensions":null,"purposes":["comms"],"wikipedia_slug":null,"has_3d_model":false,"image_url":null,"decayed_at":null,"tle_current":{"epoch":"2026-09-20T10:05:45.826656Z","epoch_age_seconds":93395,"freshness":"FRESH","line1":"1 66619U 25271C   26263.42066929  .00019452  00000+0  58528-3 0  9993","line2":"2 66619  53.1588 313.8188 0001406  84.2114 275.9049 15.34402890 47400","mean_motion":15.3440289,"eccentricity":0.0001406,"inclination_deg":53.1588,"raan_deg":313.8188,"arg_perigee_deg":84.2114,"mean_anomaly_deg":275.9049,"bstar":0.00058528,"rev_number":4740,"period_min":93.847581322009,"perigee_km":461.73282960148,"apogee_km":463.65647146161,"semimajor_km":6840.8316505315,"source":"CELESTRAK","updated_at":"2026-09-21T09:00:35.982318Z"}}}